FW1093 Weather Reports


time (UTC)temp
C
wind
direction
speed
KPH
gust
KPH
rain 1hr
cm
rain 24hr
cm
rain mn
cm
humidity
%
barometer
mb
20260504215326 20 224 1.6 9.7 0.00 0.00 0.00 43 1009.5
20260504214336 20 26 1.6 8.0 0.00 0.00 0.00 43 1009.5
20260504213325 20 312 1.6 11.3 0.00 0.00 0.00 42 1009.3
20260504212341 20 150 3.2 8.0 0.00 0.00 0.00 41 1009.4
20260504211329 21 274 3.2 11.3 0.00 0.00 0.00 39 1009.4
20260504210319 21 165 3.2 8.0 0.00 0.00 0.00 39 1009.2
20260504205327 22 149 1.6 6.4 0.00 0.00 0.00 37 1009.2
20260504204337 22 82 0.0 11.3 0.00 0.00 0.00 34 1009.0
20260504203324 22 131 1.6 8.0 0.00 0.00 0.00 34 1009.1
20260504202312 22 254 3.2 9.7 0.00 0.00 0.00 32 1009.2
20260504201320 22 134 0.0 12.9 0.00 0.00 0.00 35 1009.1
20260504200335 22 5 4.8 9.7 0.00 0.00 0.00 31 1009.4
20260504195322 22 255 1.6 8.0 0.00 0.00 0.00 33 1009.7
20260504194313 22 272 4.8 19.3 0.00 0.00 0.00 32 1009.2
20260504193329 22 274 3.2 9.7 0.00 0.00 0.00 32 1009.4
20260504192318 22 162 1.6 8.0 0.00 0.00 0.00 32 1009.4
20260504191327 22 136 3.2 6.4 0.00 0.00 0.00 31 1009.5
20260504190335 22 278 3.2 11.3 0.00 0.00 0.00 33 1009.6
20260504185330 22 266 3.2 11.3 0.00 0.00 0.00 32 1009.7
20260504184350 21 307 1.6 8.0 0.00 0.00 0.00 33 1009.5
20260504183319 21 148 3.2 9.7 0.00 0.00 0.00 34 1009.9
20260504182336 21 347 3.2 9.7 0.00 0.00 0.00 34 1010.0
20260504181326 21 179 1.6 14.5 0.00 0.00 0.00 32 1010.1
20260504180315 21 156 3.2 9.7 0.00 0.00 0.00 31 1010.2
20260504175333 21 276 1.6 12.9 0.00 0.00 0.00 35 1010.5
20260504174321 20 242 3.2 12.9 0.00 0.00 0.00 34 1010.9
20260504173313 20 151 4.8 17.7 0.00 0.00 0.00 35 1010.6
20260504172322 20 24 1.6 20.9 0.00 0.00 0.00 32 1010.6
20260504171311 20 282 1.6 8.0 0.00 0.00 0.00 34 1011.0
20260504170327 20 276 3.2 6.4 0.00 0.00 0.00 35 1010.9
20260504160321 18 307 3.2 12.9 0.00 0.00 0.00 36 1011.7
20260504150316 17 294 3.2 11.3 0.00 0.00 0.00 35 1012.5
20260504141313 16 180 1.6 14.5 0.00 0.00 0.00 37 1012.5
20260504140332 16 124 1.6 14.5 0.00 0.00 0.00 39 1012.6
20260504130328 12 136 1.6 6.4 0.00 0.00 0.00 50 1013.0
20260504100323 2 294 0.0 1.6 0.00 0.00 0.00 86 1012.9
20260504081327 1 276 0.0 1.6 0.00 0.00 0.00 87 1012.6
20260504080321 2 276 0.0 1.6 0.00 0.00 0.00 87 1012.6
20260504070313 1 272 0.0 0.0 0.00 0.00 0.00 85 1012.3
20260504050334 2 272 0.0 0.0 0.00 0.00 0.00 81 1012.3
20260504045327 2 272 0.0 0.0 0.00 0.00 0.00 81 1012.4
20260504044321 3 272 0.0 0.0 0.00 0.00 0.00 80 1012.4
20260504042313 3 272 0.0 0.0 0.00 0.00 0.00 78 1012.3
20260504041326 3 272 0.0 0.0 0.00 0.00 0.00 77 1012.3
20260504040318 3 272 0.0 0.0 0.00 0.00 0.00 75 1012.3
20260504035326 3 272 0.0 0.0 0.00 0.00 0.00 74 1012.2
20260504034324 4 272 0.0 1.6 0.00 0.00 0.00 73 1012.1
20260504033318 4 272 0.0 0.0 0.00 0.00 0.00 72 1012.1
20260504032338 4 272 0.0 0.0 0.00 0.00 0.00 69 1012.1
20260504031335 5 272 0.0 0.0 0.00 0.00 0.00 71 1012.0
20260504030331 5 272 0.0 0.0 0.00 0.00 0.00 67 1012.1
20260504025325 5 272 0.0 0.0 0.00 0.00 0.00 69 1011.9
20260504024346 5 272 0.0 0.0 0.00 0.00 0.00 67 1012.0
20260504023317 5 272 0.0 0.0 0.00 0.00 0.00 65 1011.9
20260504022337 5 272 0.0 0.0 0.00 0.00 0.00 65 1012.0
20260504021331 6 272 0.0 0.0 0.00 0.00 0.00 64 1012.0
20260504020326 6 272 0.0 0.0 0.00 0.00 0.00 62 1011.9
20260504015318 6 272 0.0 0.0 0.00 0.00 0.00 62 1011.9
20260504014314 6 272 0.0 0.0 0.00 0.00 0.00 61 1011.9
20260504013334 7 272 0.0 0.0 0.00 0.00 0.00 55 1011.8
20260504012326 7 272 0.0 0.0 0.00 0.00 0.00 58 1011.6
20260504011323 7 272 0.0 0.0 0.00 0.00 0.00 54 1011.5
20260504010314 8 272 0.0 0.0 0.00 0.00 0.00 53 1011.3
20260504005335 8 272 0.0 0.0 0.00 0.00 0.00 55 1011.1
20260504004329 8 272 0.0 0.0 0.00 0.00 0.00 55 1011.0
20260504003321 9 272 0.0 0.0 0.00 0.00 0.00 49 1010.9
20260504002314 9 272 0.0 0.0 0.00 0.00 0.00 47 1010.8
20260504001335 10 272 0.0 0.0 0.00 0.00 0.00 47 1010.6
20260504000329 10 272 0.0 0.0 0.00 0.00 0.00 48 1010.5
20260503235350 10 272 0.0 0.0 0.00 0.00 0.00 41 1010.3
20260503234348 11 272 0.0 0.0 0.00 0.00 0.00 43 1010.1
20260503233321 11 272 0.0 0.0 0.00 0.00 0.00 43 1010.1
20260503232343 12 272 0.0 1.6 0.00 0.00 0.00 37 1010.0
20260503231315 12 20 0.0 6.4 0.00 0.00 0.00 33 1009.9
20260503230335 13 314 1.6 8.0 0.00 0.00 0.00 33 1009.9
20260503225333 13 337 0.0 3.2 0.00 0.00 0.00 32 1009.7
20260503224325 13 276 1.6 9.7 0.00 0.00 0.00 34 1009.7
20260503223321 13 254 3.2 4.8 0.00 0.00 0.00 34 1009.8
20260503222315 14 287 1.6 8.0 0.00 0.00 0.00 32 1009.7
20260503221356 14 208 1.6 9.7 0.00 0.00 0.00 32 1009.5
20260503220329 15 267 3.2 9.7 0.00 0.00 0.00 32 1009.7